This is the latest recevied weather packets stored in our database for station/object 4S6DRJ-13. If no packets are shown the sender has not sent any weather packets the latest 10 day(s).
| Time | Temp. | Humidity | Pressure | Rain* | Wind** | Luminosity | Snow |
|---|---|---|---|---|---|---|---|
| 1788125774 | 27.78° C | 84% | 1008.9 hPa | 0 mm | 1.34 m/s, 281° | 0 W/m² | - |
| 1788125713 | 27.78° C | 84% | 1008.9 hPa | 0 mm | 1.79 m/s, 338° | 0 W/m² | - |
| 1788125652 | 27.78° C | 84% | 1008.9 hPa | 0 mm | 1.79 m/s, 288° | 0 W/m² | - |
| 1788125591 | 27.78° C | 84% | 1009.1 hPa | 0 mm | 2.24 m/s, 275° | 0 W/m² | - |
| 1788125530 | 27.78° C | 85% | 1009.1 hPa | 0 mm | 0.89 m/s, 242° | 0 W/m² | - |
| 1788125408 | 27.78° C | 85% | 1009.1 hPa | 0 mm | 0.45 m/s, 245° | 0 W/m² | - |
| 1788125347 | 27.78° C | 85% | 1009 hPa | 0 mm | 1.79 m/s, 225° | 0 W/m² | - |
| 1788125286 | 27.78° C | 85% | 1009 hPa | 0 mm | 0.45 m/s, 259° | 0 W/m² | - |
| 1788125225 | 27.78° C | 85% | 1009 hPa | 0 mm | 0.89 m/s, 261° | 0 W/m² | - |
| 1788125164 | 27.78° C | 85% | 1009.1 hPa | 0 mm | 0.89 m/s, 232° | 0 W/m² | - |
| 1788125103 | 27.78° C | 85% | 1009.2 hPa | 0 mm | 1.34 m/s, 210° | 0 W/m² | - |
| 1788125042 | 27.78° C | 85% | 1009 hPa | 0 mm | 0.89 m/s, 284° | 0 W/m² | - |
| 1788124981 | 27.78° C | 85% | 1009.2 hPa | 0 mm | 1.34 m/s, 154° | 0 W/m² | - |
| 1788124920 | 27.78° C | 84% | 1009 hPa | 0 mm | 0.45 m/s, 233° | 0 W/m² | - |
| 1788124859 | 27.78° C | 84% | 1009 hPa | 0 mm | 0.89 m/s, 233° | 0 W/m² | - |
| 1788124798 | 27.78° C | 84% | 1009.1 hPa | 0 mm | 1.34 m/s, 304° | 0 W/m² | - |
| 1788124737 | 27.78° C | 84% | 1009.2 hPa | 0 mm | 0.45 m/s, 305° | 0 W/m² | - |
| 1788124676 | 27.78° C | 84% | 1009 hPa | 0 mm | 0.89 m/s, 280° | 0 W/m² | - |
| 1788124615 | 27.78° C | 84% | 1009.1 hPa | 0 mm | 1.34 m/s, 189° | 0 W/m² | - |
| 1788124554 | 27.78° C | 84% | 1009.1 hPa | 0 mm | 1.34 m/s, 356° | 0 W/m² | - |
| 1788124493 | 27.78° C | 84% | 1008.9 hPa | 0 mm | 0.89 m/s, 195° | 0 W/m² | - |
| 1788124432 | 27.78° C | 84% | 1009.1 hPa | 0 mm | 0.89 m/s, 193° | 0 W/m² | - |
| 1788124371 | 27.78° C | 84% | 1009 hPa | 0 mm | 1.34 m/s, 297° | 0 W/m² | - |
| 1788124310 | 27.78° C | 84% | 1009.2 hPa | 0 mm | 1.79 m/s, 224° | 0 W/m² | - |
| 1788124249 | 27.78° C | 84% | 1009.2 hPa | 0 mm | 0.89 m/s, 220° | 0 W/m² | - |
* Rain latest hour (hover to see other rain measurements)
** Current wind speed in m/s (hover to see current wind gust speed)